Weather in Korenevshchino

Russia / Lipetsk Oblast     52°44′03″N   39°50′32″E
temp.,
°C
wind,
m/s
gust,
m/s
humid.,
%
clouds,
%
prec.,
mm/h
press.,
hPa
HPBL,
m
27 november, sat
sat2700:00−1s5127317 0.0 1017325
03:00−2s4108051 0.0 1016276
06:00−2s51285100 0.0 1016343
09:00−1sse51385100 0.0 1015374
12:00+2sse7168599 0.0 1012529
15:00+3sse81779100 0.0 1009745
18:00+2sse91992100 2.6 1007793
21:00+3s81690100 3.4 1007595
28 november, sun
sun2800:00+3s61391100 0.1 1007445
03:00+3s51195100 0.1 1007332
06:00+3s41198100 0.0 1006359
09:00+3s3999100 0.0 1008261
12:00+5ssw3996100 0.1 1008273
15:00+5s379648 0.1 1010172
18:00+4ssw349443 0.0 101161
21:00+5ssw3388100 0.0 101250
29 november, mon
mon2900:00+5s2489100 0.0 101269
03:00+4se3794100 0.0 1011153
06:00+4se41096100 0.0 1009234
09:00+6se51497100 1.3 1008395
12:00+8sse81693100 3.0 1004742
15:00+7sse81688100 4.1 1001677
18:00+8sse81691100 1.3 997661
21:00+9s101987100 4.1 992946
30 november, tue
tue3000:00+10s101986100 1.0 9881066
03:00+12ssw10188220 1.9 9851060
06:00+9sw12197597 0.4 9861330
09:00+5sw111767100 0.4 9891221
12:00+4sw10166387 0.0 9911276
15:00+4sw915615 0.0 9921248
18:00+3sw8156863 0.0 9921115
21:00+2sw8146667 0.0 9921262
1 december, wed
wed100:00+1sw7137183 0.0 992951
03:00+1sw7117788 0.0 992848
06:00−1wsw6118698 0.0 993695
09:00−1w5977100 0.1 995959
12:000w6964100 0.1 9971187
15:00−1w696230 0.1 9981169
18:00−1wsw4868100 0.0 999976
21:00−1wsw588091 0.0 999606